When you browse on this site, cookies collect data to enhance your experience and personalize the content and advertising you see.
Visit our Privacy Policy to learn more. By continuing to use the site, you agree to this use of cookies and data.
  • In Hungary
  • List of Countries
  • For 7 days
  • Water Temperature
  • Weather Map
  • News
  • Weather Widgets
  • user-avatar
    Login

    Hourly Weather Ryszewko

    Today, 10 December, Tuesday

    Time Temperature Precipitation Wind Pressure Humidity
    00:00 +3°C° 0 mm 5 mps 752 mmHg 82%
    01:00 +2°C° 0 mm 6 mps 753 mmHg 79%
    02:00 +2°C° 0 mm 6 mps 754 mmHg 78%
    03:00 +1°C° 0 mm 6 mps 755 mmHg 77%
    04:00 +1°C° 0 mm 6 mps 756 mmHg 76%
    05:00 +1°C° 0 mm 6 mps 757 mmHg 76%
    06:00 +1°C° 0 mm 6 mps 758 mmHg 75%
    07:00 -1°C° 0 mm 6 mps 759 mmHg 75%
    08:00 +1°C° 0 mm 5 mps 760 mmHg 71%
    09:00 +1°C° 0 mm 5 mps 761 mmHg 67%
    10:00 +1°C° 0 mm 5 mps 762 mmHg 63%
    11:00 +1°C° 0 mm 4 mps 762 mmHg 61%
    12:00 +3°C° 0 mm 4 mps 763 mmHg 58%
    13:00 +4°C° 0 mm 4 mps 764 mmHg 55%
    14:00 +3°C° 0 mm 3 mps 764 mmHg 64%
    15:00 +2°C° 0 mm 3 mps 764 mmHg 72%
    16:00 +2°C° 0 mm 2 mps 764 mmHg 80%
    17:00 +1°C° 0 mm 2 mps 764 mmHg 84%
    18:00 +1°C° 0 mm 2 mps 764 mmHg 88%
    19:00 +1°C° 0 mm 2 mps 764 mmHg 91%
    20:00 +1°C° 0 mm 2 mps 764 mmHg 92%
    21:00 -1°C° 0 mm 3 mps 764 mmHg 92%
    22:00 -1°C° 0 mm 3 mps 763 mmHg 93%
    23:00 -1°C° 0 mm 3 mps 763 mmHg 92%

    Tomorrow, 11 December, Wednesday

    Time Temperature Precipitation Wind Pressure Humidity
    00:00 -2°C° 0 mm 4 mps 762 mmHg 91%
    01:00 -1°C° 0 mm 4 mps 762 mmHg 90%
    02:00 -1°C° 0 mm 5 mps 761 mmHg 87%
    03:00 -1°C° 0 mm 5 mps 760 mmHg 84%
    04:00 -2°C° 0 mm 6 mps 759 mmHg 81%
    05:00 -2°C° 0 mm 6 mps 759 mmHg 80%
    06:00 -2°C° 0 mm 6 mps 758 mmHg 78%
    07:00 -2°C° 0 mm 6 mps 758 mmHg 76%
    08:00 -2°C° 0 mm 6 mps 757 mmHg 74%
    09:00 -1°C° 0 mm 6 mps 757 mmHg 73%
    10:00 -1°C° 0 mm 6 mps 757 mmHg 71%
    11:00 -1°C° 0 mm 6 mps 756 mmHg 68%
    12:00 +1°C° 0 mm 6 mps 756 mmHg 66%
    13:00 +1°C° 0 mm 6 mps 755 mmHg 64%
    14:00 +1°C° 0.1 mm 5 mps 754 mmHg 66%
    15:00 +1°C° 0.1 mm 4 mps 754 mmHg 69%
    16:00 0°C° 0.1 mm 4 mps 753 mmHg 72%
    17:00 0°C° 0.1 mm 4 mps 753 mmHg 75%
    18:00 0°C° 0.1 mm 4 mps 753 mmHg 77%
    19:00 0°C° 0.1 mm 4 mps 753 mmHg 79%
    20:00 0°C° 0.2 mm 4 mps 753 mmHg 82%
    21:00 0°C° 0.2 mm 4 mps 752 mmHg 86%
    22:00 +1°C° 0.2 mm 3 mps 752 mmHg 89%
    23:00 +1°C° 0.3 mm 3 mps 752 mmHg 91%

    Day after tomorrow, 12 December, Thursday

    Time Temperature Precipitation Wind Pressure Humidity
    00:00 +1°C° 0.3 mm 3 mps 752 mmHg 92%
    01:00 +1°C° 0.3 mm 3 mps 751 mmHg 94%
    02:00 +1°C° 0.4 mm 3 mps 751 mmHg 95%
    03:00 +1°C° 0.4 mm 3 mps 750 mmHg 95%
    04:00 +1°C° 0.4 mm 3 mps 750 mmHg 96%
    05:00 +2°C° 0.4 mm 3 mps 750 mmHg 96%
    06:00 +3°C° 0.4 mm 2 mps 750 mmHg 96%
    07:00 +3°C° 0.4 mm 2 mps 750 mmHg 96%
    08:00 +3°C° 0.2 mm 2 mps 750 mmHg 96%
    09:00 +2°C° 0.2 mm 3 mps 750 mmHg 96%
    10:00 +2°C° 0.2 mm 3 mps 750 mmHg 96%
    11:00 +3°C° 0.1 mm 3 mps 750 mmHg 94%
    12:00 +3°C° 0.1 mm 3 mps 750 mmHg 92%
    13:00 +4°C° 0.1 mm 3 mps 750 mmHg 90%
    14:00 +3°C° 0 mm 3 mps 750 mmHg 90%
    15:00 +4°C° 0 mm 2 mps 750 mmHg 90%
    16:00 +4°C° 0 mm 2 mps 749 mmHg 90%
    17:00 +4°C° 0 mm 2 mps 749 mmHg 91%
    18:00 +3°C° 0 mm 2 mps 749 mmHg 92%
    19:00 +3°C° 0 mm 2 mps 749 mmHg 92%
    20:00 +2°C° 0 mm 3 mps 748 mmHg 93%
    21:00 +1°C° 0 mm 3 mps 748 mmHg 94%
    22:00 +1°C° 0 mm 3 mps 747 mmHg 95%
    23:00 +1°C° 0 mm 3 mps 746 mmHg 94%

    13 December, Friday

    Time Temperature Precipitation Wind Pressure Humidity
    00:00 0°C° 0 mm 4 mps 746 mmHg 94%
    01:00 0°C° 0 mm 4 mps 745 mmHg 94%
    02:00 -1°C° 0 mm 5 mps 744 mmHg 92%
    03:00 -1°C° 0 mm 5 mps 742 mmHg 90%
    04:00 -2°C° 0 mm 6 mps 741 mmHg 88%
    05:00 -2°C° 0 mm 6 mps 740 mmHg 87%
    06:00 -2°C° 0 mm 6 mps 740 mmHg 86%
    07:00 -2°C° 0 mm 7 mps 739 mmHg 86%
    08:00 -2°C° 0 mm 7 mps 738 mmHg 82%
    09:00 -2°C° 0 mm 7 mps 737 mmHg 79%
    10:00 -2°C° 0 mm 7 mps 737 mmHg 75%
    11:00 -1°C° 0.1 mm 7 mps 736 mmHg 78%
    12:00 -1°C° 0.1 mm 7 mps 736 mmHg 82%
    13:00 -1°C° 0.1 mm 7 mps 736 mmHg 85%
    14:00 -1°C° 0.1 mm 7 mps 736 mmHg 88%
    15:00 -1°C° 0.1 mm 6 mps 735 mmHg 92%
    16:00 -1°C° 0.1 mm 6 mps 735 mmHg 96%
    17:00 -1°C° 0.1 mm 6 mps 735 mmHg 94%
    18:00 -1°C° 0.1 mm 6 mps 735 mmHg 92%
    19:00 +1°C° 0.1 mm 5 mps 735 mmHg 90%
    20:00 -1°C° 0 mm 6 mps 735 mmHg 88%
    21:00 -1°C° 0 mm 6 mps 735 mmHg 86%
    22:00 -1°C° 0 mm 6 mps 735 mmHg 85%
    23:00 -1°C° 0 mm 7 mps 734 mmHg 85%

    14 December, Saturday

    Time Temperature Precipitation Wind Pressure Humidity
    00:00 0°C° 0 mm 7 mps 734 mmHg 86%
    01:00 0°C° 0 mm 8 mps 734 mmHg 86%
    02:00 +1°C° 0.5 mm 8 mps 734 mmHg 88%
    03:00 +1°C° 0.5 mm 8 mps 733 mmHg 89%
    04:00 +2°C° 0.5 mm 8 mps 733 mmHg 90%
    05:00 +2°C° 0.2 mm 8 mps 734 mmHg 86%
    06:00 +2°C° 0.2 mm 8 mps 734 mmHg 82%
    07:00 +2°C° 0.2 mm 8 mps 734 mmHg 78%
    08:00 +2°C° 0 mm 8 mps 735 mmHg 77%
    09:00 +2°C° 0 mm 8 mps 735 mmHg 76%
    10:00 +2°C° 0 mm 8 mps 736 mmHg 75%
    11:00 +3°C° 0 mm 7 mps 736 mmHg 74%
    12:00 +3°C° 0 mm 7 mps 736 mmHg 74%
    13:00 +3°C° 0 mm 6 mps 736 mmHg 73%
    14:00 +3°C° 0.9 mm 6 mps 736 mmHg 80%
    15:00 +2°C° 0.9 mm 6 mps 737 mmHg 88%
    16:00 +2°C° 0.9 mm 5 mps 737 mmHg 95%
    17:00 +2°C° 0.3 mm 6 mps 737 mmHg 92%
    18:00 +2°C° 0.3 mm 6 mps 738 mmHg 89%
    19:00 +2°C° 0.3 mm 6 mps 738 mmHg 86%
    20:00 +2°C° 0 mm 7 mps 739 mmHg 82%
    21:00 +2°C° 0 mm 7 mps 740 mmHg 78%
    22:00 +1°C° 0 mm 8 mps 741 mmHg 74%
    23:00 +1°C° 0 mm 8 mps 741 mmHg 74%

    15 December, Sunday

    Time Temperature Precipitation Wind Pressure Humidity
    00:00 +1°C° 0 mm 8 mps 742 mmHg 73%
    01:00 0°C° 0 mm 8 mps 743 mmHg 73%
    02:00 0°C° 0 mm 8 mps 744 mmHg 73%
    03:00 0°C° 0 mm 8 mps 744 mmHg 73%
    04:00 0°C° 0 mm 9 mps 745 mmHg 73%
    05:00 0°C° 0 mm 8 mps 746 mmHg 73%
    06:00 0°C° 0 mm 8 mps 747 mmHg 72%
    07:00 0°C° 0 mm 8 mps 748 mmHg 72%
    08:00 0°C° 0 mm 7 mps 749 mmHg 70%
    09:00 0°C° 0 mm 7 mps 750 mmHg 69%
    10:00 0°C° 0 mm 7 mps 751 mmHg 68%
    11:00 +1°C° 0 mm 6 mps 751 mmHg 67%
    12:00 +2°C° 0 mm 6 mps 751 mmHg 66%
    13:00 +2°C° 0 mm 6 mps 750 mmHg 65%
    14:00 +2°C° 0.2 mm 6 mps 750 mmHg 71%
    15:00 +3°C° 0.2 mm 7 mps 750 mmHg 77%
    16:00 +3°C° 0.2 mm 7 mps 749 mmHg 84%
    17:00 +4°C° 0.2 mm 7 mps 749 mmHg 85%
    18:00 +4°C° 0.2 mm 7 mps 750 mmHg 85%
    19:00 +5°C° 0.2 mm 7 mps 750 mmHg 86%
    20:00 +5°C° 0 mm 6 mps 750 mmHg 87%
    21:00 +5°C° 0 mm 5 mps 751 mmHg 88%
    22:00 +5°C° 0 mm 4 mps 752 mmHg 88%
    23:00 +5°C° 0 mm 4 mps 752 mmHg 88%
    Show more